Regional Weather Roundup
Issued by NWS

Home | Current Version | Previous Version | Graphics & Text | Print | Product List | Glossary On
Versions: 1 2 3 4 5 6 7 8 9 10 11 12 13 14 15 16 17 18 19 20 21 22 23 24 25 26 27 28 29 30 31 32 33 34 35 36 37 38 39 40 41 42 43 44 45 46 47 48 49 50
000
ASUS43 KOAX 202310
RWRNE

WEATHER ROUNDUP FOR NEBRASKA
NATIONAL WEATHER SERVICE OMAHA NE
600 PM CDT MON OCT 20 2014

NOTES: SATELLITE DATA IS BEING USED TO AUGMENT CLOUD COVER ABOVE
       12000 FEET.
       "FAIR" INDICATES FEW OR NO CLOUDS BELOW 12,000 FEET WITH NO
       SIGNIFICANT WEATHER AND/OR OBSTRUCTIONS TO VISIBILITY.

  * THESE STATIONS DO NOT REPORT WEATHER SUCH AS RAIN...SNOW OR FOG.

NEZ001>004-019>022-054>056-210000-
NEBRASKA PANHANDLE

CITY           SKY/WX    TMP DP  RH WIND       PRES   REMARKS
SCOTTSBLUFF    SUNNY     79  38  22 S14       29.99S
ALLIANCE       SUNNY     74  38  27 S13       30.01F
CHADRON        CLEAR     78  43  28 S17       29.93F
KIMBALL        SUNNY     74  36  24 S12       30.04F
SIDNEY         SUNNY     74  36  25 S14       30.05F
$$

NEZ057>060-069>072-079>082-210000-
SOUTHWEST NEBRASKA

CITY           SKY/WX    TMP DP  RH WIND       PRES   REMARKS
NORTH PLATTE   CLEAR     74  40  29 S8        30.04F
IMPERIAL       CLEAR     75  38  26 S14       30.05F
LEXINGTON      CLEAR     75  40  28 S7        30.06S
MCCOOK         CLEAR     77  38  24 S9        30.06F
OGALLALA       CLEAR     77  41  28 S8G16     30.04S
$$

NEZ005>010-023>029-035>040-094-210000-
NORTH CENTRAL NEBRASKA

CITY           SKY/WX    TMP DP  RH WIND       PRES   REMARKS
VALENTINE      CLEAR     77  38  24 S13       30.00S
AINSWORTH      CLEAR     73  40  30 S7        30.02F
BROKEN BOW     CLEAR     73  45  36 SE8       30.05F
O`NEILL        CLEAR     71  43  36 SE3       30.04F
ORD            CLEAR     71  42  35 S6        30.04S
THEDFORD       CLEAR     77  40  27 S9        30.03F
$$

NEZ041-046>049-061>064-073>077-083>087-210000-
SOUTH CENTRAL NEBRASKA

CITY           SKY/WX    TMP DP  RH WIND       PRES   REMARKS
GRAND ISLAND   CLEAR     74  41  30 CALM      30.06F
AURORA         CLEAR     72  34  25 CALM      30.06S
HASTINGS       CLEAR     72  38  29 E3        30.06S
HEBRON         CLEAR     72  35  25 CALM      30.05S
HOLDREGE       CLEAR     74  39  28 CALM      30.06F
KEARNEY *      CLEAR     72  43  35 E6        30.07F
YORK           CLEAR     72  39  30 W3        30.06S
$$

NEZ011>018-030>034-042>045-210000-
NORTHEAST NEBRASKA

CITY           SKY/WX    TMP DP  RH WIND       PRES   REMARKS
NORFOLK        CLEAR     72  34  24 CALM      30.04F
ALBION         CLEAR     69  40  34 S3        30.05S
BLAIR          CLEAR     69  39  34 NW5       30.05R
COLUMBUS *     CLEAR     70  34  26 CALM      30.06S
FREMONT        CLEAR     71  36  27 CALM      30.05S
TEKAMAH        CLEAR     70  39  32 N6        30.04S
WAYNE          CLEAR     71  34  25 CALM      30.05S HAZE
$$

NEZ050>053-065>068-078-088>093-210000-
SOUTHEAST NEBRASKA

CITY           SKY/WX    TMP DP  RH WIND       PRES   REMARKS
LINCOLN        CLEAR     72  35  25 NW3       30.05S
OMAHA EPPLEY   CLEAR     70  41  34 NW5       30.04S
BEATRICE       CLEAR     69  44  41 N3        30.05S
FALLS CITY     CLEAR     71  35  26 N5        30.03S
NEBRASKA CITY  CLEAR     68  29  23 NE3       30.04S
PLATTSMOUTH    CLEAR     68  34  28 CALM      30.05S
$$

NEZ044-045-051>053-067-210000-
OMAHA AREA

CITY           SKY/WX    TMP DP  RH WIND       PRES   REMARKS
OMAHA EPPLEY   CLEAR     70  41  34 NW5       30.04S
BLAIR          CLEAR     69  39  34 NW5       30.05R
FREMONT        CLEAR     71  36  27 CALM      30.05S
MILLARD        CLEAR     70  40  33 CALM      30.04S
OFFUTT AFB     CLEAR     69  45  43 CALM      30.04S
PLATTSMOUTH    CLEAR     68  34  28 CALM      30.05S
WAHOO          FAIR      71  29  20 N3        30.04S
$$



USA.gov is the U.S. government's official web portal to all federal, state and local government web resources and services.